,,PressureMeas_1m,,PRMeasQMR101_1,,RHStat155_1m_1,,SRMeasQMS101R_1m,,TAStat155_1m_1,,GenWind_1,,GenWind_1,
2018-12-16, 00:00:06,VALID,920.204,VALID,0.0,VALID,88.549,VALID,0.028,VALID,20.165,VALID,347.0,VALID,0.0,
2018-12-16, 00:01:06,VALID,920.207,VALID,0.0,VALID,90.013,VALID,0.028,VALID,20.262,VALID,347.0,VALID,0.0,
2018-12-16, 00:02:06,VALID,920.211,VALID,0.0,VALID,91.375,VALID,0.004,VALID,20.215,VALID,347.0,VALID,0.0,
2018-12-16, 00:03:06,VALID,920.214,VALID,0.0,VALID,91.505,VALID,0.012,VALID,20.08,VALID,347.0,VALID,0.0,
2018-12-16, 00:04:06,VALID,920.216,VALID,0.0,VALID,90.92,VALID,0.002,VALID,20.015,VALID,348.0,VALID,0.0,
2018-12-16, 00:05:06,VALID,920.229,VALID,0.0,VALID,91.853,VALID,0.01,VALID,19.974,VALID,349.0,VALID,0.0,
2018-12-16, 00:06:06,VALID,920.213,VALID,0.0,VALID,91.364,VALID,0.012,VALID,19.908,VALID,349.0,VALID,0.0,
2018-12-16, 00:07:06,VALID,920.218,VALID,0.0,VALID,92.41,VALID,0.002,VALID,19.874,VALID,349.0,VALID,0.0,
2018-12-16, 00:08:06,VALID,920.213,VALID,0.0,VALID,93.097,VALID,0.011,VALID,19.825,VALID,349.0,VALID,0.0,
2018-12-16, 00:09:06,VALID,920.204,VALID,0.0,VALID,93.304,VALID,-0.0,VALID,19.799,VALID,349.0,VALID,0.0,
2018-12-16, 00:10:06,VALID,920.218,VALID,0.0,VALID,93.309,VALID,0.022,VALID,19.778,VALID,349.0,VALID,0.0,
2018-12-16, 00:11:06,VALID,920.191,VALID,0.0,VALID,93.384,VALID,0.041,VALID,19.746,VALID,349.0,VALID,0.0,
2018-12-16, 00:12:06,VALID,920.2,VALID,0.0,VALID,93.146,VALID,0.055,VALID,19.708,VALID,349.0,VALID,0.0,
2018-12-16, 00:13:06,VALID,920.186,VALID,0.0,VALID,93.197,VALID,0.045,VALID,19.691,VALID,349.0,VALID,0.0,
2018-12-16, 00:14:06,VALID,920.166,VALID,0.0,VALID,93.332,VALID,0.054,VALID,19.657,VALID,349.0,VALID,0.0,
2018-12-16, 00:15:06,VALID,920.177,VALID,0.0,VALID,93.619,VALID,0.064,VALID,19.636,VALID,349.0,VALID,0.0,
2018-12-16, 00:16:06,VALID,920.156,VALID,0.0,VALID,94.186,VALID,0.06,VALID,19.613,VALID,352.0,VALID,0.0,
2018-12-16, 00:17:06,VALID,920.141,VALID,0.0,VALID,94.167,VALID,0.065,VALID,19.574,VALID,6.0,VALID,0.0,
2018-12-16, 00:18:06,VALID,920.133,VALID,0.0,VALID,94.13,VALID,0.064,VALID,19.539,VALID,6.0,VALID,0.0,
2018-12-16, 00:19:06,VALID,920.137,VALID,0.0,VALID,93.284,VALID,0.056,VALID,19.479,VALID,9.0,VALID,0.0,
2018-12-16, 00:20:06,VALID,920.126,VALID,0.0,VALID,92.969,VALID,0.068,VALID,19.514,VALID,10.0,VALID,0.0,
2018-12-16, 00:21:06,VALID,920.093,VALID,0.0,VALID,92.815,VALID,0.051,VALID,19.502,VALID,8.0,VALID,0.0,
2018-12-16, 00:22:06,VALID,920.087,VALID,0.0,VALID,92.941,VALID,0.059,VALID,19.505,VALID,8.0,VALID,0.0,
2018-12-16, 00:23:06,VALID,920.078,VALID,0.0,VALID,93.205,VALID,0.048,VALID,19.503,VALID,12.0,VALID,0.0,
2018-12-16, 00:24:06,VALID,920.066,VALID,0.0,VALID,93.684,VALID,0.05,VALID,19.484,VALID,14.0,VALID,0.0,
2018-12-16, 00:25:06,VALID,920.045,VALID,0.0,VALID,93.614,VALID,0.009,VALID,19.459,VALID,26.0,VALID,0.0,
2018-12-16, 00:26:06,VALID,920.044,VALID,0.0,VALID,93.203,VALID,-0.086,VALID,19.428,VALID,36.0,VALID,0.0,
2018-12-16, 00:27:06,VALID,920.021,VALID,0.0,VALID,92.39,VALID,-0.086,VALID,19.429,VALID,36.0,VALID,0.0,
2018-12-16, 00:28:06,VALID,920.011,VALID,0.0,VALID,92.818,VALID,-0.085,VALID,19.429,VALID,36.0,VALID,0.0,
2018-12-16, 00:29:06,VALID,919.984,VALID,0.0,VALID,92.454,VALID,-0.086,VALID,19.456,VALID,33.0,VALID,0.0,
2018-12-16, 00:30:06,VALID,919.958,VALID,0.0,VALID,92.322,VALID,-0.076,VALID,19.53,VALID,33.0,VALID,0.0,
2018-12-16, 00:31:06,VALID,919.965,VALID,0.0,VALID,92.198,VALID,-0.085,VALID,19.545,VALID,35.0,VALID,0.0,
2018-12-16, 00:32:06,VALID,919.919,VALID,0.0,VALID,92.271,VALID,-0.098,VALID,19.552,VALID,40.0,VALID,0.0,
2018-12-16, 00:33:06,VALID,919.906,VALID,0.0,VALID,92.299,VALID,-0.082,VALID,19.548,VALID,61.0,VALID,0.0,
2018-12-16, 00:34:06,VALID,919.889,VALID,0.0,VALID,92.253,VALID,-0.079,VALID,19.529,VALID,80.0,VALID,0.0,
2018-12-16, 00:35:06,VALID,919.881,VALID,0.0,VALID,92.444,VALID,-0.073,VALID,19.49,VALID,94.0,VALID,0.0,
2018-12-16, 00:36:06,VALID,919.89,VALID,0.0,VALID,93.03,VALID,-0.081,VALID,19.463,VALID,107.0,VALID,0.0,
2018-12-16, 00:37:06,VALID,919.874,VALID,0.0,VALID,93.273,VALID,-0.09,VALID,19.45,VALID,107.0,VALID,0.0,
2018-12-16, 00:38:06,VALID,919.861,VALID,0.0,VALID,93.354,VALID,-0.069,VALID,19.456,VALID,96.0,VALID,0.0,
2018-12-16, 00:39:06,VALID,919.875,VALID,0.0,VALID,93.435,VALID,-0.077,VALID,19.467,VALID,95.0,VALID,0.0,
2018-12-16, 00:40:06,VALID,919.885,VALID,0.0,VALID,93.594,VALID,-0.062,VALID,19.473,VALID,91.0,VALID,0.0,
2018-12-16, 00:41:06,VALID,919.855,VALID,0.0,VALID,93.528,VALID,-0.043,VALID,19.471,VALID,88.0,VALID,0.0,
2018-12-16, 00:42:06,VALID,919.854,VALID,0.0,VALID,93.386,VALID,-0.04,VALID,19.465,VALID,85.0,VALID,0.0,
2018-12-16, 00:43:06,VALID,919.868,VALID,0.0,VALID,93.183,VALID,-0.059,VALID,19.457,VALID,84.0,VALID,0.0,
2018-12-16, 00:44:06,VALID,919.839,VALID,0.0,VALID,92.989,VALID,-0.07,VALID,19.447,VALID,88.0,VALID,0.0,
2018-12-16, 00:45:06,VALID,919.862,VALID,0.0,VALID,92.692,VALID,-0.055,VALID,19.432,VALID,99.0,VALID,0.0,
2018-12-16, 00:46:06,VALID,919.831,VALID,0.0,VALID,92.639,VALID,-0.043,VALID,19.428,VALID,100.0,VALID,0.0,
2018-12-16, 00:47:06,VALID,919.806,VALID,0.0,VALID,92.784,VALID,-0.045,VALID,19.421,VALID,100.0,VALID,0.0,
2018-12-16, 00:48:06,VALID,919.779,VALID,0.0,VALID,92.737,VALID,-0.056,VALID,19.416,VALID,107.0,VALID,0.0,
2018-12-16, 00:49:06,VALID,919.746,VALID,0.0,VALID,93.149,VALID,-0.06,VALID,19.42,VALID,125.0,VALID,0.0,
2018-12-16, 00:50:06,VALID,919.756,VALID,0.0,VALID,93.765,VALID,-0.04,VALID,19.445,VALID,142.0,VALID,0.0,
2018-12-16, 00:51:06,VALID,919.72,VALID,0.0,VALID,94.381,VALID,-0.06,VALID,19.484,VALID,142.0,VALID,0.0,
2018-12-16, 00:52:06,VALID,919.717,VALID,0.0,VALID,94.467,VALID,-0.045,VALID,19.483,VALID,142.0,VALID,0.0,
2018-12-16, 00:53:06,VALID,919.713,VALID,0.0,VALID,94.573,VALID,-0.041,VALID,19.501,VALID,142.0,VALID,0.0,
2018-12-16, 00:54:06,VALID,919.705,VALID,0.0,VALID,94.604,VALID,-0.046,VALID,19.526,VALID,140.0,VALID,0.0,
2018-12-16, 00:55:06,VALID,919.687,VALID,0.0,VALID,94.381,VALID,-0.031,VALID,19.525,VALID,103.0,VALID,0.0,
2018-12-16, 00:56:06,VALID,919.674,VALID,0.0,VALID,93.854,VALID,0.015,VALID,19.45,VALID,103.0,VALID,0.0,
2018-12-16, 00:57:06,VALID,919.669,VALID,0.0,VALID,94.284,VALID,0.023,VALID,19.385,VALID,88.0,VALID,0.0,
2018-12-16, 00:58:06,VALID,919.666,VALID,0.0,VALID,94.821,VALID,0.021,VALID,19.353,VALID,70.0,VALID,0.0,
2018-12-16, 00:59:06,VALID,919.662,VALID,0.0,VALID,95.129,VALID,0.015,VALID,19.353,VALID,70.0,VALID,0.0,
2018-12-16, 01:00:06,VALID,919.635,VALID,0.0,VALID,95.007,VALID,0.031,VALID,19.331,VALID,70.0,VALID,0.0,
2018-12-16, 01:01:06,VALID,919.627,VALID,0.0,VALID,95.085,VALID,0.023,VALID,19.3,VALID,59.0,VALID,0.0,
2018-12-16, 01:02:06,VALID,919.601,VALID,0.0,VALID,94.898,VALID,0.028,VALID,19.263,VALID,59.0,VALID,0.0,
2018-12-16, 01:03:06,VALID,919.578,VALID,0.0,VALID,94.811,VALID,0.021,VALID,19.227,INVALID,360.0,VALID,0.0,
2018-12-16, 01:04:06,VALID,919.564,VALID,0.0,VALID,94.804,VALID,0.028,VALID,19.166,INVALID,360.0,VALID,0.0,
2018-12-16, 01:05:06,VALID,919.558,VALID,0.0,VALID,95.102,VALID,0.025,VALID,19.114,INVALID,360.0,VALID,0.0,
2018-12-16, 01:06:06,VALID,919.543,VALID,0.0,VALID,95.497,VALID,0.035,VALID,19.173,INVALID,360.0,VALID,0.0,
2018-12-16, 01:07:06,VALID,919.522,VALID,0.0,VALID,94.94,VALID,0.027,VALID,19.24,INVALID,360.0,VALID,0.0,
2018-12-16, 01:08:06,VALID,919.52,VALID,0.0,VALID,94.833,VALID,0.044,VALID,19.269,INVALID,360.0,VALID,0.0,
2018-12-16, 01:09:06,VALID,919.526,VALID,0.0,VALID,94.762,VALID,0.039,VALID,19.303,INVALID,360.0,VALID,0.0,
2018-12-16, 01:10:06,VALID,919.49,VALID,0.0,VALID,94.507,VALID,0.025,VALID,19.301,INVALID,360.0,VALID,0.0,
2018-12-16, 01:11:06,VALID,919.474,VALID,0.0,VALID,94.503,VALID,-0.016,VALID,19.259,INVALID,360.0,VALID,0.0,
2018-12-16, 01:12:06,VALID,919.453,VALID,0.0,VALID,94.88,VALID,-0.012,VALID,19.26,INVALID,360.0,VALID,0.0,
2018-12-16, 01:13:06,VALID,919.422,VALID,0.0,VALID,94.92,VALID,-0.01,VALID,19.288,INVALID,360.0,VALID,0.0,
2018-12-16, 01:14:06,VALID,919.387,VALID,0.0,VALID,94.772,VALID,0.003,VALID,19.307,INVALID,360.0,VALID,0.0,
2018-12-16, 01:15:06,VALID,919.362,VALID,0.0,VALID,94.712,VALID,0.016,VALID,19.287,INVALID,360.0,VALID,0.0,
2018-12-16, 01:16:06,VALID,919.323,VALID,0.0,VALID,94.773,VALID,0.026,VALID,19.241,INVALID,360.0,VALID,0.0,
2018-12-16, 01:17:06,VALID,919.305,VALID,0.0,VALID,95.101,VALID,0.018,VALID,19.212,INVALID,360.0,VALID,0.0,
2018-12-16, 01:18:06,VALID,919.277,VALID,0.0,VALID,95.077,VALID,0.008,VALID,19.165,INVALID,360.0,VALID,0.0,
2018-12-16, 01:19:06,VALID,919.255,VALID,0.0,VALID,95.582,VALID,0.019,VALID,19.158,INVALID,360.0,VALID,0.0,
2018-12-16, 01:20:06,VALID,919.208,VALID,0.0,VALID,96.158,VALID,0.025,VALID,19.163,INVALID,360.0,VALID,0.0,
2018-12-16, 01:21:06,VALID,919.192,VALID,0.0,VALID,96.407,VALID,0.017,VALID,19.14,INVALID,360.0,VALID,0.0,
2018-12-16, 01:22:06,VALID,919.161,VALID,0.0,VALID,96.475,VALID,0.015,VALID,19.111,INVALID,360.0,VALID,0.0,
2018-12-16, 01:23:06,VALID,919.129,VALID,0.0,VALID,96.704,VALID,0.028,VALID,19.116,INVALID,360.0,VALID,0.0,
2018-12-16, 01:24:06,VALID,919.114,VALID,0.0,VALID,96.733,VALID,0.024,VALID,19.111,INVALID,360.0,VALID,0.0,
2018-12-16, 01:25:06,VALID,919.117,VALID,0.0,VALID,96.755,VALID,0.013,VALID,19.094,INVALID,360.0,VALID,0.0,
2018-12-16, 01:26:06,VALID,919.111,VALID,0.0,VALID,96.838,VALID,0.058,VALID,19.099,INVALID,360.0,VALID,0.0,
2018-12-16, 01:27:06,VALID,919.116,VALID,0.0,VALID,97.027,VALID,0.04,VALID,19.111,INVALID,360.0,VALID,0.0,
2018-12-16, 01:28:06,VALID,919.108,VALID,0.0,VALID,97.294,VALID,0.046,VALID,19.136,INVALID,360.0,VALID,0.0,
2018-12-16, 01:29:06,VALID,919.085,VALID,0.0,VALID,97.372,VALID,0.049,VALID,19.137,INVALID,360.0,VALID,0.0,
2018-12-16, 01:30:06,VALID,919.06,VALID,0.0,VALID,97.307,VALID,0.057,VALID,19.123,INVALID,360.0,VALID,0.0,
2018-12-16, 01:31:06,VALID,919.061,VALID,0.0,VALID,97.298,VALID,0.051,VALID,19.128,INVALID,360.0,VALID,0.0,
2018-12-16, 01:32:06,VALID,919.031,VALID,0.0,VALID,97.228,VALID,0.065,VALID,19.132,INVALID,360.0,VALID,0.0,
2018-12-16, 01:33:06,VALID,919.029,VALID,0.0,VALID,97.206,VALID,0.054,VALID,19.13,INVALID,360.0,VALID,0.0,
2018-12-16, 01:34:06,VALID,919.023,VALID,0.0,VALID,97.398,VALID,0.052,VALID,19.161,INVALID,360.0,VALID,0.0,
2018-12-16, 01:35:06,VALID,919.011,VALID,0.0,VALID,97.563,VALID,0.056,VALID,19.158,INVALID,360.0,VALID,0.0,
2018-12-16, 01:36:06,VALID,918.988,VALID,0.0,VALID,97.572,VALID,0.045,VALID,19.127,INVALID,360.0,VALID,0.0,
2018-12-16, 01:37:06,VALID,918.962,VALID,0.0,VALID,97.68,VALID,0.054,VALID,19.119,INVALID,360.0,VALID,0.0,
2018-12-16, 01:38:06,VALID,918.946,VALID,0.0,VALID,97.779,VALID,0.055,VALID,19.103,INVALID,360.0,VALID,0.0,
2018-12-16, 01:39:06,VALID,918.957,VALID,0.0,VALID,97.785,VALID,0.06,VALID,19.093,INVALID,360.0,VALID,0.0,
2018-12-16, 01:40:06,VALID,918.946,VALID,0.0,VALID,97.768,VALID,0.044,VALID,19.091,INVALID,360.0,VALID,0.0,
2018-12-16, 01:41:06,VALID,918.95,VALID,0.0,VALID,97.708,VALID,0.024,VALID,19.092,INVALID,360.0,VALID,0.0,
2018-12-16, 01:42:06,VALID,918.951,VALID,0.0,VALID,97.67,VALID,0.035,VALID,19.106,INVALID,360.0,VALID,0.0,
2018-12-16, 01:43:06,VALID,918.951,VALID,0.0,VALID,97.595,VALID,0.035,VALID,19.132,INVALID,360.0,VALID,0.0,
2018-12-16, 01:44:06,VALID,918.953,VALID,0.0,VALID,97.501,VALID,0.037,VALID,19.144,INVALID,360.0,VALID,0.0,
2018-12-16, 01:45:06,VALID,918.94,VALID,0.0,VALID,97.381,VALID,0.035,VALID,19.161,INVALID,360.0,VALID,0.0,
2018-12-16, 01:46:06,VALID,918.94,VALID,0.0,VALID,97.27,VALID,0.044,VALID,19.203,INVALID,360.0,VALID,0.0,
2018-12-16, 01:47:06,VALID,918.929,VALID,0.0,VALID,97.071,VALID,0.042,VALID,19.239,INVALID,360.0,VALID,0.0,
2018-12-16, 01:48:06,VALID,918.894,VALID,0.0,VALID,96.773,VALID,0.036,VALID,19.242,INVALID,360.0,VALID,0.0,
2018-12-16, 01:49:06,VALID,918.89,VALID,0.0,VALID,96.43,VALID,0.027,VALID,19.228,INVALID,360.0,VALID,0.0,
2018-12-16, 01:50:06,VALID,918.876,VALID,0.0,VALID,96.025,VALID,0.032,VALID,19.202,INVALID,360.0,VALID,0.0,
2018-12-16, 01:51:06,VALID,918.844,VALID,0.0,VALID,95.655,VALID,0.051,VALID,19.201,INVALID,360.0,VALID,0.0,
2018-12-16, 01:52:06,VALID,918.811,VALID,0.0,VALID,95.55,VALID,0.039,VALID,19.231,INVALID,360.0,VALID,0.0,
2018-12-16, 01:53:06,VALID,918.794,VALID,0.0,VALID,95.487,VALID,0.056,VALID,19.257,INVALID,360.0,VALID,0.0,
2018-12-16, 01:54:06,VALID,918.773,VALID,0.0,VALID,95.494,VALID,0.059,VALID,19.289,INVALID,360.0,VALID,0.0,
2018-12-16, 01:55:06,VALID,918.745,VALID,0.0,VALID,95.409,VALID,0.037,VALID,19.297,INVALID,360.0,VALID,0.0,
2018-12-16, 01:56:06,VALID,918.698,VALID,0.0,VALID,95.234,VALID,0.074,VALID,19.305,INVALID,360.0,VALID,0.0,
2018-12-16, 01:57:06,VALID,918.699,VALID,0.0,VALID,95.144,VALID,0.066,VALID,19.309,INVALID,360.0,VALID,0.0,
2018-12-16, 01:58:06,VALID,918.644,VALID,0.0,VALID,95.137,VALID,0.069,VALID,19.316,INVALID,360.0,VALID,0.0,
2018-12-16, 01:59:06,VALID,918.633,VALID,0.0,VALID,95.052,VALID,0.078,VALID,19.311,INVALID,360.0,VALID,0.0,
2018-12-16, 02:00:06,VALID,918.608,VALID,0.0,VALID,95.037,VALID,0.072,VALID,19.314,INVALID,360.0,VALID,0.0,
2018-12-16, 02:01:06,VALID,918.59,VALID,0.0,VALID,94.952,VALID,0.056,VALID,19.341,INVALID,360.0,VALID,0.0,
2018-12-16, 02:02:06,VALID,918.55,VALID,0.0,VALID,94.689,VALID,0.07,VALID,19.362,INVALID,360.0,VALID,0.0,
2018-12-16, 02:03:06,VALID,918.537,VALID,0.0,VALID,94.477,VALID,0.069,VALID,19.388,INVALID,360.0,VALID,0.0,
2018-12-16, 02:04:06,VALID,918.501,VALID,0.0,VALID,94.285,VALID,0.067,VALID,19.4,INVALID,360.0,VALID,0.0,
2018-12-16, 02:05:06,VALID,918.503,VALID,0.0,VALID,94.157,VALID,0.065,VALID,19.385,INVALID,360.0,VALID,0.0,
2018-12-16, 02:06:06,VALID,918.483,VALID,0.0,VALID,94.151,VALID,0.061,VALID,19.361,INVALID,360.0,VALID,0.0,
2018-12-16, 02:07:06,VALID,918.483,VALID,0.0,VALID,94.333,VALID,0.053,VALID,19.342,INVALID,360.0,VALID,0.0,
2018-12-16, 02:08:06,VALID,918.476,VALID,0.0,VALID,94.584,VALID,0.062,VALID,19.325,INVALID,360.0,VALID,0.0,
2018-12-16, 02:09:06,VALID,918.468,VALID,0.0,VALID,94.759,VALID,0.073,VALID,19.339,INVALID,360.0,VALID,0.0,
2018-12-16, 02:10:06,VALID,918.461,VALID,0.0,VALID,94.687,VALID,0.068,VALID,19.346,INVALID,360.0,VALID,0.0,
2018-12-16, 02:11:06,VALID,918.46,VALID,0.0,VALID,94.628,VALID,0.056,VALID,19.35,INVALID,360.0,VALID,0.0,
2018-12-16, 02:12:06,VALID,918.453,VALID,0.0,VALID,94.595,VALID,0.063,VALID,19.348,INVALID,360.0,VALID,0.0,
2018-12-16, 02:13:06,VALID,918.44,VALID,0.0,VALID,94.595,VALID,0.067,VALID,19.338,INVALID,360.0,VALID,0.0,
2018-12-16, 02:14:06,VALID,918.448,VALID,0.0,VALID,94.646,VALID,0.053,VALID,19.318,INVALID,360.0,VALID,0.0,
2018-12-16, 02:15:06,VALID,918.448,VALID,0.0,VALID,94.847,VALID,0.057,VALID,19.313,INVALID,360.0,VALID,0.0,
2018-12-16, 02:16:06,VALID,918.443,VALID,0.0,VALID,95.175,VALID,0.044,VALID,19.31,INVALID,360.0,VALID,0.0,
2018-12-16, 02:17:06,VALID,918.48,VALID,0.0,VALID,95.514,VALID,0.048,VALID,19.298,INVALID,360.0,VALID,0.0,
2018-12-16, 02:18:06,VALID,918.482,VALID,0.0,VALID,95.423,VALID,0.061,VALID,19.244,INVALID,360.0,VALID,0.0,
2018-12-16, 02:19:06,VALID,918.479,VALID,0.0,VALID,95.432,VALID,0.059,VALID,19.204,INVALID,360.0,VALID,0.0,
2018-12-16, 02:20:06,VALID,918.477,VALID,0.0,VALID,95.483,VALID,0.051,VALID,19.187,INVALID,360.0,VALID,0.0,
2018-12-16, 02:21:06,VALID,918.484,VALID,0.0,VALID,95.58,VALID,0.052,VALID,19.197,INVALID,360.0,VALID,0.0,
2018-12-16, 02:22:06,VALID,918.46,VALID,0.0,VALID,95.457,VALID,0.045,VALID,19.191,INVALID,360.0,VALID,0.0,
2018-12-16, 02:23:06,VALID,918.43,VALID,0.0,VALID,95.407,VALID,0.049,VALID,19.18,INVALID,360.0,VALID,0.0,
2018-12-16, 02:24:06,VALID,918.409,VALID,0.0,VALID,95.467,VALID,0.044,VALID,19.167,INVALID,360.0,VALID,0.0,
2018-12-16, 02:25:06,VALID,918.361,VALID,0.0,VALID,95.536,VALID,0.031,VALID,19.154,INVALID,360.0,VALID,0.0,
2018-12-16, 02:26:06,VALID,918.354,VALID,0.0,VALID,95.685,VALID,0.006,VALID,19.136,INVALID,360.0,VALID,0.0,
2018-12-16, 02:27:06,VALID,918.334,VALID,0.0,VALID,95.897,VALID,-0.006,VALID,19.14,INVALID,360.0,VALID,0.0,
2018-12-16, 02:28:06,VALID,918.3,VALID,0.0,VALID,95.961,VALID,-0.018,VALID,19.139,INVALID,360.0,VALID,0.0,
2018-12-16, 02:29:06,VALID,918.282,VALID,0.0,VALID,95.928,VALID,-0.002,VALID,19.124,INVALID,360.0,VALID,0.0,
2018-12-16, 02:30:06,VALID,918.254,VALID,0.0,VALID,95.888,VALID,-0.004,VALID,19.102,INVALID,360.0,VALID,0.0,
2018-12-16, 02:31:06,VALID,918.235,VALID,0.0,VALID,95.892,VALID,-0.008,VALID,19.106,INVALID,360.0,VALID,0.0,
2018-12-16, 02:32:06,VALID,918.231,VALID,0.0,VALID,95.883,VALID,0.006,VALID,19.116,INVALID,360.0,VALID,0.0,
2018-12-16, 02:33:06,VALID,918.241,VALID,0.0,VALID,95.709,VALID,-0.022,VALID,19.138,INVALID,360.0,VALID,0.0,
2018-12-16, 02:34:06,VALID,918.245,VALID,0.0,VALID,95.398,VALID,-0.013,VALID,19.161,INVALID,360.0,VALID,0.0,
2018-12-16, 02:35:06,VALID,918.241,VALID,0.0,VALID,94.958,VALID,-0.009,VALID,19.21,INVALID,360.0,VALID,0.0,
2018-12-16, 02:36:06,VALID,918.269,VALID,0.0,VALID,94.658,VALID,-0.012,VALID,19.243,INVALID,360.0,VALID,0.0,
2018-12-16, 02:37:06,VALID,918.244,VALID,0.0,VALID,94.596,VALID,-0.016,VALID,19.258,INVALID,360.0,VALID,0.0,
2018-12-16, 02:38:06,VALID,918.25,VALID,0.0,VALID,94.68,VALID,-0.013,VALID,19.276,INVALID,360.0,VALID,0.0,
2018-12-16, 02:39:06,VALID,918.259,VALID,0.0,VALID,94.687,VALID,0.001,VALID,19.291,INVALID,360.0,VALID,0.0,
2018-12-16, 02:40:06,VALID,918.261,VALID,0.0,VALID,94.669,VALID,0.016,VALID,19.29,INVALID,360.0,VALID,0.0,
2018-12-16, 02:41:06,VALID,918.268,VALID,0.0,VALID,94.776,VALID,0.016,VALID,19.297,INVALID,360.0,VALID,0.0,
2018-12-16, 02:42:06,VALID,918.26,VALID,0.0,VALID,94.898,VALID,0.019,VALID,19.311,INVALID,360.0,VALID,0.0,
2018-12-16, 02:43:06,VALID,918.259,VALID,0.0,VALID,94.969,VALID,0.005,VALID,19.324,INVALID,360.0,VALID,0.0,
2018-12-16, 02:44:06,VALID,918.255,VALID,0.0,VALID,95.008,VALID,0.005,VALID,19.319,INVALID,360.0,VALID,0.0,
2018-12-16, 02:45:06,VALID,918.243,VALID,0.0,VALID,95.075,VALID,0.018,VALID,19.304,INVALID,360.0,VALID,0.0,
2018-12-16, 02:46:06,VALID,918.212,VALID,0.0,VALID,95.207,VALID,0.009,VALID,19.293,INVALID,360.0,VALID,0.0,
2018-12-16, 02:47:06,VALID,918.191,VALID,0.0,VALID,95.288,VALID,-0.009,VALID,19.274,INVALID,360.0,VALID,0.0,
2018-12-16, 02:48:06,VALID,918.157,VALID,0.0,VALID,95.549,VALID,-0.012,VALID,19.243,INVALID,360.0,VALID,0.0,
2018-12-16, 02:49:06,VALID,918.12,VALID,0.0,VALID,95.779,VALID,-0.004,VALID,19.192,INVALID,360.0,VALID,0.0,
2018-12-16, 02:50:06,VALID,918.085,VALID,0.0,VALID,96.186,VALID,-0.008,VALID,19.16,INVALID,360.0,VALID,0.0,
2018-12-16, 02:51:06,VALID,918.105,VALID,0.0,VALID,96.491,VALID,-0.015,VALID,19.16,INVALID,360.0,VALID,0.0,
2018-12-16, 02:52:06,VALID,918.087,VALID,0.0,VALID,96.457,VALID,-0.005,VALID,19.171,INVALID,360.0,VALID,0.0,
2018-12-16, 02:53:06,VALID,918.116,VALID,0.0,VALID,96.324,VALID,0.002,VALID,19.205,INVALID,360.0,VALID,0.0,
2018-12-16, 02:54:06,VALID,918.121,VALID,0.0,VALID,96.199,VALID,-0.005,VALID,19.24,INVALID,360.0,VALID,0.0,
2018-12-16, 02:55:06,VALID,918.106,VALID,0.0,VALID,95.959,VALID,0.009,VALID,19.28,INVALID,360.0,VALID,0.0,
2018-12-16, 02:56:06,VALID,918.106,VALID,0.0,VALID,95.651,VALID,0.042,VALID,19.307,INVALID,360.0,VALID,0.0,
2018-12-16, 02:57:06,VALID,918.102,VALID,0.0,VALID,95.463,VALID,0.029,VALID,19.306,INVALID,360.0,VALID,0.0,
2018-12-16, 02:58:06,VALID,918.1,VALID,0.0,VALID,95.218,VALID,0.027,VALID,19.274,INVALID,360.0,VALID,0.0,
2018-12-16, 02:59:06,VALID,918.075,VALID,0.0,VALID,94.976,VALID,0.026,VALID,19.254,INVALID,360.0,VALID,0.0,
2018-12-16, 03:00:06,VALID,918.068,VALID,0.0,VALID,94.883,VALID,0.022,VALID,19.247,INVALID,360.0,VALID,0.0,
2018-12-16, 03:01:06,VALID,918.053,VALID,0.0,VALID,94.604,VALID,0.038,VALID,19.242,INVALID,360.0,VALID,0.0,
2018-12-16, 03:02:06,VALID,918.054,VALID,0.0,VALID,94.442,VALID,0.037,VALID,19.223,INVALID,360.0,VALID,0.0,
2018-12-16, 03:03:06,VALID,918.045,VALID,0.0,VALID,94.46,VALID,0.019,VALID,19.203,INVALID,360.0,VALID,0.0,
2018-12-16, 03:04:06,VALID,918.048,VALID,0.0,VALID,94.543,VALID,0.04,VALID,19.182,INVALID,360.0,VALID,0.0,
2018-12-16, 03:05:06,VALID,918.023,VALID,0.0,VALID,94.8,VALID,0.024,VALID,19.176,INVALID,360.0,VALID,0.0,
2018-12-16, 03:06:07,VALID,918.044,VALID,0.0,VALID,94.917,VALID,0.031,VALID,19.186,INVALID,360.0,VALID,0.0,
2018-12-16, 03:07:07,VALID,918.052,VALID,0.0,VALID,94.968,VALID,0.037,VALID,19.2,INVALID,360.0,VALID,0.0,
2018-12-16, 03:08:07,VALID,918.055,VALID,0.0,VALID,94.986,VALID,0.03,VALID,19.202,INVALID,360.0,VALID,0.0,
2018-12-16, 03:09:07,VALID,918.061,VALID,0.0,VALID,95.022,VALID,0.03,VALID,19.191,INVALID,360.0,VALID,0.0,
2018-12-16, 03:10:07,VALID,918.061,VALID,0.0,VALID,95.089,VALID,0.002,VALID,19.18,INVALID,360.0,VALID,0.0,
2018-12-16, 03:11:07,VALID,918.037,VALID,0.0,VALID,95.206,VALID,-0.046,VALID,19.165,INVALID,360.0,VALID,0.0,
2018-12-16, 03:12:07,VALID,918.049,VALID,0.0,VALID,95.323,VALID,-0.033,VALID,19.162,INVALID,360.0,VALID,0.0,
2018-12-16, 03:13:07,VALID,918.022,VALID,0.0,VALID,95.215,VALID,-0.028,VALID,19.138,INVALID,360.0,VALID,0.0,
2018-12-16, 03:14:07,VALID,918.028,VALID,0.0,VALID,95.547,VALID,-0.026,VALID,19.142,INVALID,360.0,VALID,0.0,
2018-12-16, 03:15:07,VALID,918.015,VALID,0.0,VALID,95.909,VALID,-0.037,VALID,19.184,INVALID,360.0,VALID,0.0,
2018-12-16, 03:16:07,VALID,918.006,VALID,0.0,VALID,95.883,VALID,-0.025,VALID,19.214,INVALID,360.0,VALID,0.0,
2018-12-16, 03:17:07,VALID,918.0,VALID,0.0,VALID,95.748,VALID,-0.045,VALID,19.24,INVALID,360.0,VALID,0.0,
2018-12-16, 03:18:07,VALID,917.996,VALID,0.0,VALID,95.578,VALID,-0.035,VALID,19.246,INVALID,360.0,VALID,0.0,
2018-12-16, 03:19:07,VALID,918.015,VALID,0.0,VALID,95.354,VALID,-0.021,VALID,19.232,INVALID,360.0,VALID,0.0,
2018-12-16, 03:20:07,VALID,918.012,VALID,0.0,VALID,95.337,VALID,-0.04,VALID,19.218,INVALID,360.0,VALID,0.0,
2018-12-16, 03:21:07,VALID,918.009,VALID,0.0,VALID,95.43,VALID,-0.042,VALID,19.23,INVALID,360.0,VALID,0.0,
2018-12-16, 03:22:07,VALID,917.975,VALID,0.0,VALID,95.348,VALID,-0.048,VALID,19.24,INVALID,360.0,VALID,0.0,
2018-12-16, 03:23:07,VALID,918.002,VALID,0.0,VALID,95.234,VALID,-0.047,VALID,19.249,INVALID,360.0,VALID,0.0,
2018-12-16, 03:24:07,VALID,917.978,VALID,0.0,VALID,95.205,VALID,-0.041,VALID,19.245,INVALID,360.0,VALID,0.0,
2018-12-16, 03:25:07,VALID,917.941,VALID,0.0,VALID,95.344,VALID,-0.036,VALID,19.24,INVALID,360.0,VALID,0.0,
2018-12-16, 03:26:07,VALID,917.923,VALID,0.0,VALID,95.246,VALID,-0.007,VALID,19.241,INVALID,360.0,VALID,0.0,
2018-12-16, 03:27:07,VALID,917.881,VALID,0.0,VALID,94.969,VALID,-0.013,VALID,19.248,INVALID,360.0,VALID,0.0,
2018-12-16, 03:28:07,VALID,917.871,VALID,0.0,VALID,94.511,VALID,-0.016,VALID,19.246,INVALID,360.0,VALID,0.0,
2018-12-16, 03:29:07,VALID,917.858,VALID,0.0,VALID,94.244,VALID,-0.018,VALID,19.254,INVALID,360.0,VALID,0.0,
2018-12-16, 03:30:07,VALID,917.82,VALID,0.0,VALID,94.366,VALID,-0.009,VALID,19.231,INVALID,360.0,VALID,0.0,
2018-12-16, 03:31:07,VALID,917.829,VALID,0.0,VALID,94.526,VALID,-0.002,VALID,19.185,INVALID,360.0,VALID,0.0,
2018-12-16, 03:32:07,VALID,917.804,VALID,0.0,VALID,94.737,VALID,0.007,VALID,19.144,INVALID,360.0,VALID,0.0,
2018-12-16, 03:33:07,VALID,917.794,VALID,0.0,VALID,94.99,VALID,0.006,VALID,19.112,INVALID,360.0,VALID,0.0,
2018-12-16, 03:34:07,VALID,917.771,VALID,0.0,VALID,94.962,VALID,0.004,VALID,19.083,INVALID,360.0,VALID,0.0,
2018-12-16, 03:35:07,VALID,917.762,VALID,0.0,VALID,94.868,VALID,0.005,VALID,19.072,INVALID,360.0,VALID,0.0,
2018-12-16, 03:36:07,VALID,917.782,VALID,0.0,VALID,94.755,VALID,-0.005,VALID,19.074,INVALID,360.0,VALID,0.0,
2018-12-16, 03:37:07,VALID,917.779,VALID,0.0,VALID,95.379,VALID,-0.002,VALID,19.093,INVALID,360.0,VALID,0.0,
2018-12-16, 03:38:07,VALID,917.756,VALID,0.0,VALID,95.908,VALID,-0.017,VALID,19.057,INVALID,360.0,VALID,0.0,
2018-12-16, 03:39:07,VALID,917.757,VALID,0.0,VALID,96.269,VALID,-0.006,VALID,19.013,INVALID,360.0,VALID,0.0,